Dewpoint
59 59 60 60 60 61 61 61 61 61 61 61 61 61 61 62 61 56 41 49 74 75 72 67 63 63 64 63 62 61 56 52 53 54 55 54 53 55 55 54 53 54 57 58 63
60 60 60 60 60 61 61 61 61 60 60 60 60 61 62 62 56 42 52 73 77 75 66 63 62 63 61 62 62 60 56 54 54 54 54 55 54 54 53 54 53 53 54 57 61
59 59 60 59 60 60 60 59 59 60 59 60 60 61 62 61 44 36 71 77 77 72 66 65 63 60 61 61 59 59 57 55 57 56 56 55 57 56 55 53 53 53 52 58 61
59 59 59 59 59 59 59 59 59 59 59 59 60 63 62 57 39 47 76 77 75 72 60 61 62 60 58 55 57 54 55 59 55 56 55 55 57 54 53 53 54 53 53 56 58
59 59 59 58 58 58 58 59 59 59 59 59 61 63 56 34 39 62 75 77 73 65 52 51 57 55 44 53 54 52 53 57 53 54 55 55 54 56 54 54 54 53 53 53 54
59 58 57 57 57 57 58 58 58 59 59 59 61 62 51 24 35 66 63 65 54 50 50 53 55 52 38 49 48 50 50 50 53 57 57 52 55 54 53 54 53 53 53 52 53
58 57 57 57 57 58 58 58 58 58 59 60 62 57 46 25 41 56 52 44 45 47 45 50 52 41 38 36 44 48 49 52 52 54 53 53 50 54 55 53 52 52 53 52 53
56 56 57 57 57 58 57 57 57 58 59 60 61 55 32 36 37 48 48 45 39 40 47 50 48 39 37 35 38 48 49 48 51 53 54 53 47 55 57 52 51 52 52 52 52
57 57 57 57 57 57 56 57 57 59 60 62 53 50 38 47 24 26 47 42 42 41 46 48 43 39 34 30 33 44 40 46 49 52 51 53 53 56 57 52 50 50 51 51 52
57 57 57 57 57 56 55 56 57 58 58 57 51 40 39 32 20 19 23 41 41 43 45 43 38 34 32 28 26 37 38 39 42 51 50 52 50 52 54 52 49 49 49 50 50
57 57 57 57 56 54 53 49 37 38 49 42 33 32 36 32 16 15 20 39 37 24 37 32 31 32 32 28 28 30 36 37 41 51 52 48 50 53 52 56 53 48 48 48 48
57 56 56 55 55 55 53 42 41 33 31 34 39 39 39 36 28 15 34 37 29 23 23 20 18 20 26 26 26 31 36 33 41 51 51 50 47 50 52 53 56 53 48 48 51
56 56 55 54 54 52 48 43 43 39 33 32 32 30 30 31 28 22 14 34 27 23 22 19 17 19 18 17 19 26 27 28 36 50 49 49 45 50 54 56 57 56 50 50 51
56 55 54 53 48 49 45 43 39 35 31 31 28 26 25 25 20 26 17 15 26 26 22 16 16 14 14 12 15 28 19 31 31 25 24 43 34 47 52 51 54 56 54 54 53
56 54 53 53 50 47 43 48 47 34 24 32 24 24 23 20 19 18 18 14 14 16 14 13 12 10 7 6 9 6 14 28 29 25 37 35 34 38 48 46 52 53 53 55 58
55 53 53 51 50 51 50 47 35 29 24 23 26 19 19 20 19 20 19 15 15 15 15 13 13 10 7 9 13 15 15 21 34 36 28 34 34 35 44 44 51 52 53 54 56
53 52 52 52 43 48 46 38 31 26 26 21 23 23 21 19 20 17 13 13 12 18 11 12 11 11 10 7 8 10 13 15 24 33 32 35 34 34 36 45 49 52 52 52 53
52 52 52 51 52 49 43 34 28 28 16 17 17 18 18 18 18 14 12 11 15 13 11 9 7 10 12 7 5 16 10 14 17 30 31 37 33 32 37 37 46 52 52 52 53
51 50 50 50 51 48 39 33 29 18 16 15 17 19 24 20 16 12 14 13 14 12 8 5 6 10 12 11 6 6 7 11 14 34 28 31 34 38 43 46 50 51 52 52 52
50 49 48 50 50 43 35 35 31 22 23 21 17 24 24 23 21 11 12 14 16 15 9 14 6 11 15 8 10 6 7 3 8 16 25 33 34 37 45 46 46 49 52 53 53
52 48 47 49 42 36 32 32 29 26 25 19 19 20 21 23 25 23 22 22 25 15 11 28 14 10 13 11 9 7 11 6 5 18 14 27 34 45 48 48 46 48 52 53 53
52 45 40 38 33 37 33 31 34 28 30 29 19 24 28 27 27 27 26 27 30 33 31 30 15 26 21 19 14 11 9 8 6 3 14 23 27 45 45 44 49 46 48 53 54
49 49 41 37 33 39 37 35 31 29 31 28 31 31 31 28 26 32 37 40 40 32 28 38 27 26 25 24 23 24 24 14 9 12 7 23 32 41 44 53 55 53 50 50 53
51 45 44 39 40 43 36 34 33 34 32 34 32 33 32 31 36 39 40 41 41 41 58 39 25 25 23 24 24 29 31 33 11 12 13 17 36 43 45 46 49 52 53 54 54
47 44 46 41 39 39 37 35 37 38 39 38 38 38 37 37 38 38 38 39 39 48 39 26 23 30 24 30 31 34 33 37 42 39 31 29 37 42 44 49 52 56 56 56 55
46 45 47 46 43 38 37 36 33 34 36 35 33 34 39 37 36 34 35 35 37 39 37 35 31 39 30 32 32 34 36 39 45 47 44 36 39 44 51 54 55 56 58 59 60
53 50 49 46 42 41 39 36 34 37 37 36 35 34 34 40 36 35 36 36 36 36 35 32 29 30 26 34 30 32 37 40 47 51 48 41 47 52 52 53 55 55 57 58 59
Lifted_Index
15 15 15 14 14 14 13 13 13 13 13 13 13 13 13 13 12 11 8 4 -1 -3 -2 -2 -2 -3 -3 -2 -2 -1 -1 -1 -1 -1 -2 -2 -3 -2 -2 -2 -1 -1 -1 -2 -3
15 15 14 14 14 14 13 13 13 14 14 14 13 13 13 12 11 10 7 2 -2 -3 -2 -2 -3 -3 -3 -2 -2 -2 -1 -1 -1 -1 -2 -2 -2 -2 -2 -2 -1 -0 -1 -1 -2
14 14 14 14 14 14 14 14 14 14 14 14 13 13 12 12 10 8 4 -1 -3 -3 -2 -2 -3 -3 -2 -2 -2 -2 -1 -1 -2 -2 -2 -2 -2 -2 -2 -1 -1 -0 0 -1 -1
14 14 14 14 14 14 14 14 14 14 14 14 13 12 12 11 8 5 1 -2 -3 -2 -1 -1 -2 -2 -1 -1 -2 -2 -2 -2 -2 -3 -3 -2 -2 -2 -2 -1 -1 -0 0 -0 -0
13 14 14 14 14 14 14 14 15 15 14 14 13 12 11 9 7 4 1 -1 -1 0 1 -0 -2 -2 -1 -1 -2 -2 -2 -2 -3 -3 -2 -2 -2 -2 -1 -1 -0 0 0 0 0
13 13 13 13 14 14 14 14 15 15 15 14 12 11 10 8 7 5 4 3 4 3 2 -0 -2 -1 -0 -0 -1 -1 -2 -2 -3 -3 -2 -2 -2 -2 -1 -0 -0 0 0 0 0
13 13 13 13 13 13 14 14 15 15 14 13 12 11 9 9 8 6 5 6 7 5 2 -0 -1 -0 1 0 -0 -1 -1 -2 -2 -3 -2 -2 -2 -1 -1 -0 0 0 1 1 1
13 13 13 13 13 13 13 14 14 14 13 12 11 10 9 9 9 7 6 7 6 4 2 1 -0 0 1 1 0 -1 -1 -2 -2 -2 -2 -2 -1 -1 -1 -0 0 1 1 1 1
12 12 12 12 13 13 13 13 12 11 11 11 10 9 8 9 9 8 7 6 4 3 2 1 1 1 1 1 0 -0 -1 -1 -2 -2 -2 -2 -1 -1 -1 -0 1 1 1 1 1
13 13 12 12 12 13 12 11 9 9 9 9 9 8 8 8 8 8 7 5 4 3 3 2 2 2 2 1 0 -0 -0 -1 -1 -2 -2 -2 -2 -2 -1 -1 0 1 1 1 1
13 13 12 12 12 12 11 10 9 8 8 8 8 8 8 8 8 8 6 5 4 4 4 3 3 2 2 2 1 0 -0 -0 -1 -2 -2 -2 -2 -2 -2 -1 -0 1 1 1 1
13 13 12 12 12 12 11 10 10 9 8 8 8 7 7 7 8 7 6 5 5 5 5 4 3 3 3 2 1 0 -0 -0 -1 -2 -3 -2 -2 -2 -2 -1 -1 0 1 1 1
13 13 12 12 11 11 10 10 10 9 7 7 7 7 7 7 7 7 7 6 5 5 5 3 3 3 3 3 1 0 -0 -1 -1 -2 -2 -2 -1 -1 -2 -2 -1 -1 0 0 0
12 12 12 11 10 9 9 9 10 9 6 5 6 7 7 7 6 7 7 6 5 5 5 4 3 3 3 3 1 0 -0 -0 -0 -1 -1 -0 -0 -0 -1 -2 -2 -2 -1 -0 -0
11 11 11 10 9 8 8 8 8 7 4 4 5 6 6 6 6 6 7 7 6 5 5 4 3 4 3 3 2 1 0 0 0 0 0 1 1 0 -1 -2 -2 -2 -2 -1 -1
11 11 10 10 9 8 8 7 6 4 3 4 5 5 5 5 5 6 6 6 5 5 4 4 3 3 3 3 2 2 1 1 1 0 0 1 1 1 0 -1 -2 -2 -2 -2 -2
10 10 10 9 8 8 7 6 4 3 3 4 4 4 4 4 4 4 5 5 4 4 3 3 3 3 2 2 2 2 2 1 0 0 -0 0 0 1 0 -0 -1 -2 -2 -2 -2
9 9 8 8 7 7 6 5 4 4 3 3 3 3 3 3 3 3 3 4 4 3 3 2 2 2 2 1 1 1 1 1 0 -0 -0 -0 0 0 -0 -1 -1 -2 -2 -2 -2
7 7 6 6 6 6 5 4 4 4 4 2 2 2 2 2 2 2 2 2 2 2 2 1 1 1 1 1 1 1 1 1 0 0 -0 -0 -0 -0 -1 -2 -2 -2 -2 -2 -2
5 5 5 5 6 5 4 4 4 4 4 3 2 2 2 1 1 1 1 1 1 1 1 1 1 1 1 1 0 0 0 0 0 0 -0 -0 -0 -1 -1 -2 -2 -3 -3 -2 -2
4 4 5 5 5 5 4 4 4 4 4 4 3 2 2 2 1 1 0 0 1 1 1 1 1 0 0 0 0 -0 -0 -0 0 -0 -0 -1 -1 -1 -1 -1 -2 -3 -3 -2 -2
3 4 5 5 5 4 4 3 4 4 4 4 4 3 3 2 1 1 1 1 1 1 1 1 0 0 0 0 0 0 0 0 0 -0 -0 -0 -1 -1 -1 -1 -1 -2 -3 -3 -3
3 4 5 6 4 3 3 3 4 4 4 4 4 3 3 2 1 1 1 1 1 1 1 1 1 0 1 1 1 1 1 1 0 -0 -0 -0 -0 -1 -1 -2 -2 -2 -3 -3 -3
3 4 5 5 4 3 3 3 3 4 4 3 3 3 3 2 2 1 1 1 1 1 2 2 2 1 1 1 1 1 1 1 0 -0 -0 -0 -0 -1 -2 -3 -3 -3 -3 -3 -3
5 4 4 4 4 4 4 3 3 3 3 3 3 3 3 3 3 2 2 1 1 1 2 2 2 2 2 2 2 1 1 1 -0 -0 -0 -0 -0 -1 -3 -3 -4 -4 -4 -4 -4
6 6 4 4 5 5 4 4 3 3 3 3 3 3 3 3 3 3 3 2 2 1 1 2 2 2 2 2 2 1 1 0 -1 -1 -0 -0 -1 -2 -3 -4 -4 -5 -5 -5 -5
7 6 5 4 5 5 5 4 3 2 3 3 3 3 3 3 4 4 3 3 2 1 1 1 1 1 1 2 2 1 1 -0 -1 -1 -1 -1 -1 -2 -3 -4 -5 -5 -5 -6 -6